User: anonymous   Login
Location: Augirein
(42.9320°N, 0.9181°E)
Time: 23:53:46
(UTC+00:00)
Language:

COSMOS 2406 - Orbit

View from above orbital plane
View from above orbital plane
View from above satellite
View from above satellite

Ground track
Ground track

The orbit data is extracted from the following two-line orbital elements,

1 28352U 04021A   21263.04112236 -.00000008  00000-0  21349-4 0  9992
2 28352  70.9991 115.8131 0015571 272.6016  87.3322 14.11686816890374
Epoch (UTC): 20 September 2021 00:59:12
Eccentricity: 0.0015571
inclination: 70.9991°
perigee height: 842 km
apogee height: 865 km
right ascension of ascending node: 115.8131°
argument of perigee: 272.6016°
revolutions per day: 14.11686816
mean anomaly at epoch: 87.3322°
orbit number at epoch: 89037

The dashed part of the orbit path shows where the satellite is in the earth's shadow,  

DLR